• In Russia
  • List of Countries
  • For 7 days
  • Water Temperature
  • Satellite Maps
  • Weather Map
  • Weather Widgets
  • user-avatar
    Login

    Hourly Weather Durres

    Today, 21 August, Monday

    Time Temperature Precipitation Wind Pressure Humidity
    00:00 +25°C° 2.2 mm 4 mps 758 mmHg 71%
    01:00 +23°C° 2.2 mm 5 mps 758 mmHg 77%
    02:00 +23°C° 0.8 mm 4 mps 758 mmHg 80%
    03:00 +23°C° 0.8 mm 4 mps 758 mmHg 83%
    04:00 +24°C° 0.8 mm 3 mps 758 mmHg 86%
    05:00 +25°C° 0 mm 3 mps 758 mmHg 80%
    06:00 +25°C° 0 mm 3 mps 758 mmHg 75%
    07:00 +26°C° 0 mm 2 mps 758 mmHg 70%
    08:00 +28°C° 0 mm 3 mps 758 mmHg 60%
    09:00 +30°C° 0 mm 3 mps 758 mmHg 51%
    10:00 +33°C° 0 mm 3 mps 758 mmHg 42%
    11:00 +34°C° 0 mm 4 mps 757 mmHg 39%
    12:00 +34°C° 0 mm 5 mps 757 mmHg 37%
    13:00 +35°C° 0 mm 5 mps 757 mmHg 35%
    14:00 +34°C° 0 mm 6 mps 757 mmHg 36%
    15:00 +34°C° 0 mm 7 mps 757 mmHg 36%
    16:00 +34°C° 0 mm 8 mps 757 mmHg 37%
    17:00 +32°C° 0 mm 8 mps 757 mmHg 43%
    18:00 +28°C° 0 mm 7 mps 757 mmHg 49%
    19:00 +26°C° 0 mm 7 mps 758 mmHg 55%
    20:00 +26°C° 0 mm 7 mps 758 mmHg 57%
    21:00 +24°C° 0 mm 6 mps 758 mmHg 60%
    22:00 +23°C° 0 mm 6 mps 759 mmHg 62%
    23:00 +23°C° 0 mm 6 mps 759 mmHg 63%

    Tomorrow, 22 August, Tuesday

    Time Temperature Precipitation Wind Pressure Humidity
    00:00 +22°C° 0 mm 5 mps 759 mmHg 63%
    01:00 +22°C° 0 mm 5 mps 759 mmHg 63%
    02:00 +21°C° 0 mm 6 mps 759 mmHg 63%
    03:00 +21°C° 0 mm 6 mps 759 mmHg 63%
    04:00 +20°C° 0 mm 6 mps 759 mmHg 62%
    05:00 +22°C° 0 mm 6 mps 759 mmHg 57%
    06:00 +23°C° 0 mm 6 mps 760 mmHg 51%
    07:00 +24°C° 0 mm 6 mps 760 mmHg 46%
    08:00 +27°C° 0 mm 6 mps 760 mmHg 40%
    09:00 +28°C° 0 mm 6 mps 760 mmHg 34%
    10:00 +30°C° 0 mm 6 mps 760 mmHg 28%
    11:00 +32°C° 0 mm 6 mps 760 mmHg 25%
    12:00 +33°C° 0 mm 6 mps 759 mmHg 23%
    13:00 +34°C° 0 mm 6 mps 759 mmHg 20%
    14:00 +34°C° 0 mm 7 mps 759 mmHg 20%
    15:00 +34°C° 0 mm 8 mps 759 mmHg 20%
    16:00 +34°C° 0 mm 9 mps 758 mmHg 21%
    17:00 +31°C° 0 mm 8 mps 759 mmHg 29%
    18:00 +27°C° 0 mm 8 mps 759 mmHg 37%
    19:00 +23°C° 0 mm 7 mps 759 mmHg 45%
    20:00 +23°C° 0 mm 7 mps 760 mmHg 44%
    21:00 +22°C° 0 mm 6 mps 760 mmHg 44%
    22:00 +22°C° 0 mm 5 mps 760 mmHg 43%
    23:00 +21°C° 0 mm 5 mps 760 mmHg 43%

    Day after tomorrow, 23 August, Wednesday

    Time Temperature Precipitation Wind Pressure Humidity
    00:00 +21°C° 0 mm 4 mps 760 mmHg 43%
    01:00 +20°C° 0 mm 4 mps 760 mmHg 43%
    02:00 +20°C° 0 mm 4 mps 760 mmHg 44%
    03:00 +20°C° 0 mm 3 mps 760 mmHg 45%
    04:00 +19°C° 0 mm 3 mps 760 mmHg 46%
    05:00 +21°C° 0 mm 3 mps 760 mmHg 44%
    06:00 +24°C° 0 mm 3 mps 761 mmHg 42%
    07:00 +25°C° 0 mm 3 mps 761 mmHg 40%
    08:00 +28°C° 0 mm 3 mps 761 mmHg 34%
    09:00 +30°C° 0 mm 2 mps 761 mmHg 28%
    10:00 +34°C° 0 mm 2 mps 761 mmHg 22%
    11:00 +34°C° 0 mm 3 mps 761 mmHg 21%
    12:00 +35°C° 0 mm 4 mps 761 mmHg 19%
    13:00 +35°C° 0 mm 5 mps 761 mmHg 18%
    14:00 +35°C° 0 mm 5 mps 761 mmHg 20%
    15:00 +34°C° 0 mm 5 mps 760 mmHg 21%
    16:00 +33°C° 0 mm 5 mps 760 mmHg 23%
    17:00 +30°C° 0 mm 5 mps 761 mmHg 32%
    18:00 +27°C° 0 mm 4 mps 761 mmHg 40%
    19:00 +24°C° 0 mm 3 mps 761 mmHg 48%
    20:00 +24°C° 0 mm 3 mps 761 mmHg 47%
    21:00 +22°C° 0 mm 3 mps 762 mmHg 45%
    22:00 +23°C° 0 mm 2 mps 762 mmHg 44%
    23:00 +23°C° 0 mm 2 mps 762 mmHg 42%

    24 August, Thursday

    Time Temperature Precipitation Wind Pressure Humidity
    00:00 +21°C° 0 mm 2 mps 762 mmHg 40%
    01:00 +21°C° 0 mm 2 mps 762 mmHg 38%
    02:00 +21°C° 0 mm 2 mps 762 mmHg 38%
    03:00 +21°C° 0 mm 2 mps 762 mmHg 38%
    04:00 +20°C° 0 mm 2 mps 762 mmHg 38%
    05:00 +23°C° 0 mm 2 mps 762 mmHg 36%
    06:00 +25°C° 0 mm 2 mps 762 mmHg 35%
    07:00 +26°C° 0 mm 2 mps 762 mmHg 33%
    08:00 +29°C° 0 mm 2 mps 762 mmHg 29%
    09:00 +32°C° 0 mm 2 mps 762 mmHg 24%
    10:00 +35°C° 0 mm 2 mps 762 mmHg 20%
    11:00 +36°C° 0 mm 3 mps 762 mmHg 19%
    12:00 +36°C° 0 mm 3 mps 762 mmHg 18%
    13:00 +37°C° 0 mm 4 mps 762 mmHg 17%
    14:00 +36°C° 0 mm 4 mps 761 mmHg 18%
    15:00 +36°C° 0 mm 5 mps 761 mmHg 19%
    16:00 +35°C° 0 mm 5 mps 761 mmHg 21%
    17:00 +32°C° 0 mm 5 mps 761 mmHg 28%
    18:00 +28°C° 0 mm 4 mps 761 mmHg 34%
    19:00 +25°C° 0 mm 3 mps 761 mmHg 41%
    20:00 +25°C° 0 mm 3 mps 762 mmHg 40%
    21:00 +25°C° 0 mm 2 mps 762 mmHg 38%
    22:00 +25°C° 0 mm 2 mps 762 mmHg 36%
    23:00 +25°C° 0 mm 2 mps 762 mmHg 35%

    25 August, Friday

    Time Temperature Precipitation Wind Pressure Humidity
    00:00 +24°C° 0 mm 2 mps 762 mmHg 33%
    01:00 +24°C° 0 mm 1 mps 762 mmHg 31%
    02:00 +24°C° 0 mm 1 mps 762 mmHg 31%
    03:00 +24°C° 0 mm 2 mps 762 mmHg 30%
    04:00 +23°C° 0 mm 2 mps 762 mmHg 29%
    05:00 +25°C° 0 mm 2 mps 762 mmHg 28%
    06:00 +26°C° 0 mm 2 mps 762 mmHg 27%
    07:00 +28°C° 0 mm 2 mps 762 mmHg 26%
    08:00 +31°C° 0 mm 2 mps 762 mmHg 22%
    09:00 +34°C° 0 mm 1 mps 762 mmHg 19%
    10:00 +37°C° 0 mm 1 mps 762 mmHg 16%
    11:00 +38°C° 0 mm 2 mps 762 mmHg 15%
    12:00 +38°C° 0 mm 2 mps 762 mmHg 15%
    13:00 +39°C° 0 mm 3 mps 761 mmHg 14%
    14:00 +38°C° 0 mm 3 mps 761 mmHg 16%
    15:00 +37°C° 0 mm 3 mps 761 mmHg 17%
    16:00 +37°C° 0 mm 4 mps 761 mmHg 19%
    17:00 +34°C° 0 mm 3 mps 761 mmHg 24%
    18:00 +30°C° 0 mm 2 mps 761 mmHg 30%
    19:00 +27°C° 0 mm 2 mps 761 mmHg 36%
    20:00 +26°C° 0 mm 1 mps 761 mmHg 35%
    21:00 +26°C° 0 mm 1 mps 762 mmHg 35%
    22:00 +26°C° 0 mm 1 mps 762 mmHg 34%
    23:00 +26°C° 0 mm 1 mps 762 mmHg 33%

    26 August, Saturday

    Time Temperature Precipitation Wind Pressure Humidity
    00:00 +25°C° 0 mm 1 mps 761 mmHg 33%
    01:00 +25°C° 0 mm 1 mps 761 mmHg 32%
    02:00 +25°C° 0 mm 1 mps 761 mmHg 32%
    03:00 +24°C° 0 mm 1 mps 761 mmHg 33%
    04:00 +24°C° 0 mm 1 mps 761 mmHg 33%
    05:00 +26°C° 0 mm 1 mps 761 mmHg 32%
    06:00 +27°C° 0 mm 1 mps 762 mmHg 31%
    07:00 +29°C° 0 mm 2 mps 762 mmHg 30%
    08:00 +32°C° 0 mm 1 mps 762 mmHg 26%
    09:00 +34°C° 0 mm 1 mps 761 mmHg 22%
    10:00 +37°C° 0 mm 1 mps 761 mmHg 17%
    11:00 +39°C° 0 mm 2 mps 761 mmHg 17%
    12:00 +39°C° 0 mm 3 mps 761 mmHg 16%
    13:00 +40°C° 0 mm 3 mps 760 mmHg 15%
    14:00 +40°C° 0 mm 4 mps 760 mmHg 17%
    15:00 +38°C° 0 mm 4 mps 760 mmHg 18%
    16:00 +38°C° 0 mm 4 mps 760 mmHg 19%
    17:00 +34°C° 0 mm 3 mps 760 mmHg 25%
    18:00 +30°C° 0 mm 3 mps 760 mmHg 32%
    19:00 +27°C° 0 mm 2 mps 760 mmHg 38%
    20:00 +27°C° 0 mm 2 mps 760 mmHg 37%
    21:00 +27°C° 0 mm 1 mps 760 mmHg 36%
    22:00 +27°C° 0 mm 1 mps 760 mmHg 34%
    23:00 +26°C° 0 mm 1 mps 760 mmHg 33%
    Show more